User: anonymous   Login
Location: ????????
(55.7667°N, 37.4833°E)
Time: 08:55:55
(UTC+00:00)
Language:

Okean 3 Rocket - Orbit

View from above orbital plane
View from above orbital plane
View from above satellite
View from above satellite

Ground track
Ground track

The orbit data is extracted from the following two-line orbital elements,

1 21398U 91039B   25197.90628278  .00000324  00000-0  38216-4 0  9994
2 21398  82.5229 356.6671 0019781 218.2660 141.7151 14.81570405819483
Epoch (UTC): 16 July 2025 21:45:02
Eccentricity: 0.0019781
inclination: 82.5229°
perigee height: 610 km
apogee height: 638 km
right ascension of ascending node: 356.6671°
argument of perigee: 218.2660°
revolutions per day: 14.81570405
mean anomaly at epoch: 141.7151°
orbit number at epoch: 81948

The dashed part of the orbit path shows where the satellite is in the earth's shadow,  

DLR